Location: ???????????
(55.5758°N, 38.4970°E)
Time: 19:10:00
(UTC+00:00)

Cosmos 2123 Rocket - Pass Details

Date: 15 November 2025
Orbit: 961 x 991 km, 82.9° (Epoch: 14 December)

Event Time Altitude Azimuth Distance (km) Brightness Sun altitude
Exits shadow 01:39:50 31° 184° (S) 1,633 5.0 -27.9°
Maximum altitude 01:43:02 84° 99° (E) 978 3.9 -27.5°
Drops below altitude 10° 01:49:14 10° 13° (NNE) 2,710 6.5 -26.6°
Sets 01:51:45 0° 12° (NNE) 3,660 7.2 -26.3°
